Wind_Speed
25 25 24 24 24 24 23 23 23 23 23 23 23 24 24 25 25 25 25 25 26 25 25 25 26 26 26 26 26 25 26 26 26 27 27 28 28 28 29 30 30 30 30
27 26 26 26 26 25 25 25 25 25 25 25 25 26 26 26 26 26 27 27 27 27 26 27 27 27 27 27 27 28 28 28 29 29 29 30 30 30 30 31 31 32 32
28 28 28 27 27 27 27 27 27 26 26 26 27 27 27 28 27 28 28 28 28 28 28 29 29 29 29 29 30 30 30 31 31 31 31 32 32 32 32 32 32 33 34
30 30 29 29 29 28 28 28 28 28 28 29 29 29 29 29 29 29 30 30 30 30 30 31 31 31 31 31 32 32 33 33 33 33 33 34 34 34 34 34 34 34 35
31 31 30 30 30 30 30 30 30 30 30 31 31 31 31 31 31 31 31 31 32 32 32 33 33 33 33 34 34 34 35 35 35 35 36 36 36 36 36 36 36 37 37
33 32 32 31 31 31 32 32 32 32 32 32 32 33 33 33 33 33 33 33 34 34 35 35 35 35 35 36 36 37 37 37 37 37 37 38 38 38 38 39 39 39 39
35 34 33 34 33 33 33 34 34 33 34 34 34 34 34 35 35 35 35 35 36 36 36 37 37 37 38 38 38 38 38 39 39 39 39 40 40 40 40 40 41 41 41
35 36 36 35 35 35 35 35 35 35 35 36 36 36 36 36 36 37 37 37 38 38 38 39 39 40 40 40 40 40 40 40 41 41 42 42 42 42 42 42 42 42 43
37 37 37 36 36 36 37 37 37 37 38 38 38 38 38 37 38 38 38 38 38 39 40 41 41 41 41 41 41 42 42 42 43 43 43 44 44 44 44 45 45 45 45
36 37 37 37 38 37 38 39 39 39 40 40 39 39 39 38 38 38 39 39 40 40 41 42 42 43 43 43 43 44 44 44 44 45 45 45 45 46 46 47 47 47 47
36 37 37 38 39 39 39 38 39 40 40 40 40 40 40 41 41 41 40 41 42 43 43 43 44 45 45 45 46 46 47 46 46 47 47 47 48 49 49 50 50 50 50
38 38 38 38 39 40 39 39 40 40 41 42 42 42 42 42 42 43 43 43 44 44 45 46 46 47 48 48 49 49 49 49 50 50 50 51 51 52 52 52 52 53 53
38 39 40 41 41 42 42 42 42 42 43 43 43 43 43 44 45 45 45 45 45 46 47 48 49 50 50 51 51 52 52 53 53 53 54 54 54 55 55 55 55 55 55
41 41 43 43 43 44 45 44 45 45 44 45 45 45 45 46 46 47 47 48 48 48 49 50 50 51 52 53 53 54 55 55 55 56 57 57 57 57 58 58 58 58 58
42 42 43 44 44 45 45 46 47 47 47 47 46 46 47 48 48 48 49 50 51 51 50 51 52 52 53 54 55 56 56 57 58 58 59 59 59 59 60 60 60 60 60
42 42 43 44 44 45 45 46 47 47 48 48 48 49 49 50 50 50 51 51 52 53 53 53 54 55 55 56 57 57 58 59 60 60 61 62 62 62 62 63 62 63 62
43 44 44 44 45 46 46 47 47 48 48 49 49 50 50 51 51 52 52 53 54 55 54 54 55 56 57 59 59 60 61 62 63 63 63 64 64 64 65 65 65 65 65
43 44 44 45 46 47 47 48 49 49 50 51 51 52 52 53 53 54 55 55 56 56 57 57 57 59 60 61 62 63 64 65 65 65 66 66 66 66 66 66 67 66 66
44 45 45 46 47 48 49 49 50 51 52 52 53 53 54 54 55 55 56 56 57 58 59 59 60 61 62 64 65 65 66 67 67 67 67 68 68 68 68 68 68 68 67
45 46 46 47 48 49 49 50 51 52 52 53 54 55 55 56 56 57 57 57 58 59 60 61 62 62 64 65 67 68 68 68 69 70 70 69 69 69 69 69 68 68 67
46 46 46 47 48 50 51 51 52 53 53 54 54 55 55 56 56 57 57 58 59 60 61 62 63 64 65 66 67 68 69 69 69 69 70 69 69 69 68 68 67 66 65
46 46 47 48 49 50 51 52 53 53 53 54 54 54 55 56 57 57 58 60 61 61 62 63 64 65 65 66 67 68 69 69 68 67 67 67 68 67 66 66 65 64 63
48 48 49 49 50 50 51 52 52 53 53 53 54 55 55 56 57 58 59 60 61 62 63 63 64 64 65 66 67 67 67 66 66 65 66 64 64 63 63 63 63 63 62
49 49 49 50 50 50 51 51 52 53 53 53 53 54 55 56 57 58 58 59 60 61 63 63 64 64 64 65 66 66 66 66 64 63 63 62 60 60 60 60 60 60 60
49 49 50 50 51 51 51 52 52 52 52 53 54 55 55 56 57 58 59 59 60 60 62 63 64 64 64 65 65 65 64 64 62 60 60 60 58 58 57 57 57 57 56
49 49 50 50 51 51 51 52 52 52 52 53 54 54 55 56 57 58 59 59 59 59 60 61 62 63 63 63 64 64 63 62 61 59 57 58 56 56 55 53 53 52 51
Wind_Direction
258 261 265 268 270 272 274 277 280 283 284 284 285 286 287 288 288 288 289 288 288 289 290 292 294 294 294 293 293 293 294 293 291 291 290 289 288 288 286 284 282 280 279
257 261 264 267 270 272 274 276 279 282 283 284 284 285 286 287 288 288 288 288 288 288 289 291 292 292 292 292 292 292 293 293 291 290 290 289 289 288 287 285 283 281 279
256 260 264 267 270 272 274 276 278 281 282 283 284 284 285 286 287 287 287 287 287 287 288 289 290 290 290 291 291 291 291 291 290 290 289 289 288 287 286 285 284 281 279
255 259 263 267 270 271 273 275 277 280 282 283 283 284 284 285 286 287 286 286 285 286 287 288 289 289 290 290 291 291 291 290 290 289 289 288 288 287 286 284 283 282 281
255 258 261 266 269 271 273 274 276 279 280 282 282 283 284 285 286 286 285 285 285 285 286 286 287 288 288 289 289 290 289 289 288 288 288 287 287 286 286 285 283 282 281
255 258 261 265 269 271 272 274 276 278 279 280 281 282 283 284 284 285 285 285 284 284 284 285 286 287 287 288 288 288 288 288 287 287 287 287 287 286 285 284 283 283 282
255 258 262 264 269 271 272 273 275 276 279 280 281 282 283 283 283 284 285 284 284 284 284 285 285 286 286 287 287 288 288 287 286 286 286 286 286 285 285 284 283 283 282
254 258 262 265 267 269 270 272 274 276 278 280 280 282 283 283 283 284 284 284 284 284 283 284 284 285 286 286 286 287 286 286 286 286 286 286 286 285 284 284 284 283 283
254 258 262 265 267 268 270 273 275 277 278 279 280 281 282 282 283 283 283 283 284 284 284 284 284 285 286 285 286 286 286 286 286 286 286 285 285 285 284 284 284 284 283
257 259 262 265 267 270 271 273 274 276 278 279 280 281 281 282 282 281 282 282 283 284 285 284 284 285 285 285 285 286 286 285 285 285 285 285 285 284 284 284 284 284 284
259 262 264 266 268 269 271 273 274 276 278 278 279 279 280 281 281 281 281 282 283 284 284 285 285 285 285 285 285 285 285 285 284 284 284 285 285 284 284 284 284 284 284
263 266 267 268 270 271 273 275 276 276 277 278 278 279 281 281 281 282 281 281 282 283 284 285 285 285 285 285 285 285 284 284 284 284 284 285 284 284 284 284 284 283 283
266 267 269 270 271 272 275 276 276 277 278 278 279 279 280 281 281 282 282 281 281 282 283 284 285 285 284 284 284 284 284 284 284 284 285 285 285 284 284 283 283 283 283
268 269 270 271 272 274 275 276 276 278 279 279 280 280 280 280 281 281 281 281 281 282 283 284 284 284 284 284 284 284 284 284 284 284 285 285 284 284 283 283 283 283 283
267 269 270 271 273 274 275 276 277 278 278 278 278 279 279 280 281 281 281 282 283 283 282 283 283 284 284 285 285 285 284 284 284 285 285 285 284 284 284 283 283 282 282
269 271 272 273 274 276 278 278 278 279 279 279 279 279 280 280 282 282 283 284 284 284 284 283 283 284 284 285 285 285 285 285 285 285 285 285 284 284 283 283 282 282 282
269 271 273 274 276 278 279 280 279 279 279 279 280 281 281 281 282 283 284 285 285 286 285 285 285 285 285 285 286 286 286 286 286 286 285 285 284 284 283 282 282 281 281
271 273 274 276 278 279 280 280 280 281 281 281 282 282 282 282 283 284 285 285 286 286 286 285 285 285 285 286 286 286 286 286 286 286 285 285 284 284 283 283 282 282 282
274 276 277 278 279 280 281 281 282 282 282 282 282 282 282 283 283 284 285 286 286 286 286 286 286 286 286 286 287 287 287 287 286 286 285 285 284 284 284 283 282 282 282
277 278 279 279 280 280 281 281 282 283 283 283 282 283 283 283 284 284 285 286 286 286 287 287 287 287 287 287 287 287 286 286 286 286 285 285 285 284 284 283 283 282 281
278 279 279 280 280 281 281 282 283 284 284 284 284 283 283 284 284 285 285 286 287 287 287 288 288 288 288 289 288 287 287 287 287 286 286 285 285 285 284 283 283 282 281
279 279 280 280 281 282 283 283 284 284 284 284 284 284 284 285 286 286 287 287 287 288 288 289 289 289 290 290 290 289 289 288 288 287 287 286 285 284 284 283 282 281 280
279 280 281 282 282 283 283 284 284 284 284 285 285 285 285 286 286 287 287 287 288 289 289 290 291 291 291 291 291 292 291 291 290 289 288 286 285 285 284 284 283 282 280
281 282 282 283 283 283 284 284 284 285 285 286 286 286 286 287 287 287 287 288 289 289 290 290 292 293 293 293 293 293 292 292 291 290 289 288 287 285 285 284 284 283 281
280 281 282 282 283 284 284 285 285 286 286 287 287 288 288 288 288 288 289 289 290 290 290 291 292 293 294 294 294 294 293 293 292 291 290 290 288 287 286 285 285 283 282
281 282 282 283 283 284 285 285 286 286 287 288 288 289 289 289 290 290 291 291 292 292 291 292 292 293 294 295 294 294 294 293 293 292 291 290 289 288 287 286 285 284 282
Height
5819 5820 5821 5822 5823 5823 5824 5824 5824 5824 5823 5823 5823 5822 5821 5821 5820 5819 5819 5818 5817 5817 5816 5815 5814 5812 5811 5810 5809 5808 5807 5805 5804 5803 5802 5801 5801 5800 5799 5798 5798 5797 5797
5813 5814 5816 5817 5817 5818 5818 5818 5818 5818 5818 5818 5817 5817 5816 5815 5815 5814 5813 5812 5812 5811 5810 5809 5808 5807 5806 5804 5803 5802 5801 5800 5799 5797 5796 5795 5794 5793 5792 5791 5791 5790 5790
5807 5809 5810 5811 5812 5812 5813 5813 5813 5813 5813 5812 5812 5811 5810 5810 5809 5808 5807 5806 5806 5805 5804 5803 5802 5801 5800 5798 5797 5796 5795 5793 5792 5791 5790 5788 5787 5786 5785 5784 5783 5782 5782
5800 5802 5804 5805 5805 5806 5806 5807 5807 5807 5807 5806 5805 5805 5804 5803 5803 5802 5801 5800 5799 5798 5797 5796 5795 5794 5793 5791 5790 5789 5788 5786 5785 5784 5782 5781 5780 5779 5777 5776 5775 5774 5773
5794 5795 5796 5798 5799 5799 5800 5800 5800 5800 5800 5800 5799 5798 5797 5797 5796 5795 5794 5793 5792 5791 5790 5789 5788 5787 5785 5784 5783 5781 5780 5779 5777 5776 5774 5773 5771 5770 5769 5768 5767 5766 5765
5787 5788 5789 5791 5792 5792 5793 5793 5793 5793 5793 5792 5792 5791 5790 5790 5789 5788 5787 5786 5785 5784 5783 5781 5780 5779 5777 5776 5775 5773 5772 5770 5769 5767 5766 5764 5763 5761 5760 5759 5757 5756 5755
5779 5781 5782 5783 5784 5785 5785 5786 5786 5786 5785 5785 5784 5783 5783 5782 5781 5780 5779 5778 5777 5776 5775 5773 5772 5771 5769 5767 5766 5764 5763 5761 5759 5758 5756 5755 5753 5752 5750 5749 5747 5746 5745
5771 5773 5774 5775 5776 5777 5777 5778 5778 5778 5777 5777 5776 5776 5775 5775 5773 5772 5771 5770 5768 5767 5766 5764 5763 5761 5760 5758 5756 5755 5753 5751 5750 5748 5746 5745 5743 5742 5740 5738 5737 5735 5734
5764 5765 5766 5767 5768 5769 5769 5770 5770 5770 5769 5768 5767 5767 5767 5766 5765 5764 5762 5761 5759 5758 5756 5755 5753 5752 5750 5748 5747 5745 5743 5741 5739 5737 5736 5734 5732 5730 5729 5727 5726 5724 5723
5756 5757 5758 5759 5760 5760 5761 5761 5761 5761 5760 5759 5758 5758 5758 5757 5756 5755 5754 5752 5750 5748 5747 5745 5743 5741 5740 5738 5736 5734 5732 5730 5728 5726 5724 5722 5720 5718 5717 5715 5713 5712 5710
5748 5749 5750 5751 5752 5752 5752 5752 5752 5751 5750 5750 5749 5748 5747 5747 5746 5745 5744 5742 5740 5738 5736 5735 5732 5730 5729 5727 5725 5723 5721 5719 5717 5714 5712 5710 5708 5706 5704 5702 5700 5698 5697
5740 5741 5741 5742 5742 5743 5743 5742 5742 5741 5741 5740 5739 5738 5737 5736 5735 5734 5734 5732 5730 5728 5725 5723 5721 5719 5717 5715 5713 5711 5709 5706 5704 5702 5700 5697 5695 5692 5690 5688 5686 5684 5682
5731 5732 5732 5733 5733 5733 5733 5732 5732 5731 5731 5730 5729 5728 5726 5725 5724 5723 5722 5721 5719 5717 5714 5711 5708 5706 5704 5702 5700 5698 5695 5693 5691 5688 5686 5683 5680 5678 5676 5673 5671 5669 5667
5722 5722 5723 5723 5723 5723 5723 5722 5722 5720 5720 5719 5718 5716 5715 5714 5712 5711 5710 5708 5707 5706 5703 5700 5696 5693 5691 5688 5686 5684 5681 5679 5676 5673 5671 5668 5665 5662 5660 5658 5655 5653 5651
5712 5713 5713 5713 5713 5713 5712 5711 5710 5709 5708 5707 5706 5705 5703 5701 5699 5698 5696 5695 5694 5693 5692 5688 5684 5680 5677 5674 5672 5669 5666 5663 5661 5658 5655 5652 5649 5646 5643 5641 5639 5636 5634
5703 5703 5702 5702 5702 5701 5701 5700 5699 5698 5697 5695 5694 5692 5690 5689 5687 5685 5683 5681 5679 5678 5677 5675 5671 5667 5664 5660 5657 5654 5651 5648 5644 5641 5638 5635 5632 5629 5626 5623 5621 5619 5616
5692 5692 5692 5691 5690 5690 5689 5688 5687 5686 5685 5683 5681 5680 5678 5676 5674 5672 5669 5667 5664 5662 5661 5660 5656 5652 5649 5645 5641 5638 5634 5631 5627 5624 5620 5617 5614 5610 5607 5604 5602 5599 5597
5681 5681 5680 5679 5679 5678 5677 5676 5675 5673 5672 5670 5669 5667 5664 5662 5660 5657 5655 5652 5649 5646 5645 5644 5641 5637 5633 5628 5624 5621 5617 5613 5609 5605 5601 5598 5594 5591 5588 5585 5582 5579 5577
5670 5670 5669 5668 5667 5666 5665 5663 5662 5660 5659 5657 5655 5653 5650 5648 5645 5642 5639 5637 5634 5630 5627 5626 5624 5620 5616 5611 5607 5603 5599 5594 5590 5586 5581 5578 5574 5570 5567 5564 5561 5559 5557
5659 5658 5657 5656 5655 5653 5652 5650 5649 5647 5645 5643 5640 5638 5635 5633 5630 5627 5624 5621 5617 5614 5610 5607 5605 5602 5598 5593 5588 5583 5580 5575 5571 5566 5561 5557 5553 5549 5546 5543 5540 5538 5535
5647 5646 5645 5643 5642 5640 5639 5637 5635 5633 5631 5628 5626 5623 5620 5617 5614 5611 5608 5605 5601 5597 5593 5590 5587 5583 5579 5574 5568 5563 5559 5555 5551 5545 5540 5536 5531 5528 5524 5521 5518 5515 5513
5635 5634 5632 5631 5629 5627 5625 5623 5621 5619 5616 5614 5611 5608 5605 5602 5598 5595 5592 5588 5584 5580 5576 5572 5568 5564 5560 5554 5548 5543 5538 5534 5532 5528 5520 5517 5511 5507 5503 5500 5497 5494 5492
5623 5621 5619 5617 5616 5614 5611 5609 5607 5604 5602 5599 5596 5593 5590 5586 5583 5580 5576 5572 5568 5563 5558 5554 5550 5545 5540 5535 5529 5524 5518 5513 5510 5505 5499 5497 5492 5488 5484 5480 5477 5475 5472
5610 5608 5606 5604 5602 5600 5597 5595 5592 5590 5587 5584 5581 5578 5574 5571 5567 5563 5560 5556 5552 5547 5542 5536 5532 5527 5521 5515 5509 5504 5498 5494 5490 5485 5478 5476 5473 5469 5465 5462 5458 5455 5453
5596 5594 5592 5590 5588 5586 5583 5580 5578 5575 5573 5570 5566 5562 5559 5555 5551 5547 5543 5540 5536 5531 5525 5520 5514 5508 5503 5497 5490 5485 5480 5474 5472 5468 5461 5456 5454 5451 5448 5445 5441 5437 5434
5583 5581 5579 5576 5574 5572 5569 5566 5563 5561 5559 5556 5552 5548 5543 5539 5535 5530 5526 5522 5519 5515 5510 5504 5498 5492 5486 5479 5473 5466 5461 5456 5452 5450 5445 5439 5436 5432 5431 5430 5425 5421 5418